Location: Ch�tillon
(48.8024°N, 2.2935°E)
Time: 04:37:51
(UTC+00:00)

XW-2A - Visible Passes

Search period start: 29 June 2022 00:00
Search period end: 09 July 2022 00:00
Orbit: 397 x 413 km, 97.2° (Epoch: 28 June)

Date Brightness Start Highest point End Pass type
(mag) Time Alt. Az. Time Alt. Az. Time Alt. Az.
29 Jun ? 21:12:25 10° SSW 21:15:15 32° W 21:18:06 10° NNW visible
01 Jul ? 21:06:48 10° S 21:09:43 38° W 21:12:40 10° NNW visible
02 Jul ? 21:51:56 10° WSW 21:53:06 12° W 21:54:16 10° WNW visible
03 Jul ? 21:01:03 10° S 21:04:03 46° W 21:07:04 10° NNW visible
04 Jul ? 21:45:41 10° SW 21:47:20 14° W 21:49:00 10° WNW visible
05 Jul ? 20:55:12 10° S 20:58:15 56° W 21:01:19 10° NNW visible
06 Jul ? 21:39:24 10° SW 21:41:25 16° W 21:43:26 10° NW visible
07 Jul ? 20:49:13 10° S 20:52:18 70° W 20:55:25 10° NNW visible
08 Jul ? 21:33:05 10° SW 21:35:22 19° W 21:37:39 10° NW visible
